﻿測定場所 (Monitoring sites),日付 (Measurement date),時間 (Measurement time),線量率 最大値 (max) μGy/h,線量率 最小値 (min) μGy/h,線量率 平均値 (average) μGy/h,
足立 (Adachi),2015-05-24,23:01～24:00,0.0440,0.0375,0.0401,
足立 (Adachi),2015-05-24,22:01～23:00,0.0433,0.0369,0.0406,
足立 (Adachi),2015-05-24,21:01～22:00,0.0423,0.0378,0.0401,
足立 (Adachi),2015-05-24,20:01～21:00,0.0439,0.0370,0.0403,
足立 (Adachi),2015-05-24,19:01～20:00,0.0436,0.0366,0.0406,
足立 (Adachi),2015-05-24,18:01～19:00,0.0432,0.0382,0.0405,
足立 (Adachi),2015-05-24,17:01～18:00,0.0441,0.0369,0.0404,
足立 (Adachi),2015-05-24,16:01～17:00,0.0433,0.0384,0.0405,
足立 (Adachi),2015-05-24,15:01～16:00,0.0434,0.0379,0.0406,
足立 (Adachi),2015-05-24,14:01～15:00,0.0437,0.0376,0.0405,
足立 (Adachi),2015-05-24,13:01～14:00,0.0440,0.0376,0.0408,
足立 (Adachi),2015-05-24,12:01～13:00,0.0452,0.0380,0.0409,
足立 (Adachi),2015-05-24,11:01～12:00,0.0433,0.0369,0.0404,
足立 (Adachi),2015-05-24,10:01～11:00,0.0435,0.0375,0.0407,
足立 (Adachi),2015-05-24,09:01～10:00,0.0432,0.0379,0.0405,
足立 (Adachi),2015-05-24,08:01～09:00,0.0445,0.0386,0.0412,
足立 (Adachi),2015-05-24,07:01～08:00,0.0436,0.0379,0.0406,
足立 (Adachi),2015-05-24,06:01～07:00,0.0448,0.0382,0.0409,
足立 (Adachi),2015-05-24,05:01～06:00,0.0444,0.0385,0.0412,
足立 (Adachi),2015-05-24,04:01～05:00,0.0441,0.0374,0.0408,
足立 (Adachi),2015-05-24,03:01～04:00,0.0440,0.0374,0.0407,
足立 (Adachi),2015-05-24,02:01～03:00,0.0443,0.0377,0.0409,
足立 (Adachi),2015-05-24,01:01～02:00,0.0439,0.0379,0.0409,
足立 (Adachi),2015-05-24,00:01～01:00,0.0441,0.0374,0.0408,
足立 (Adachi),2015-05-23,23:01～24:00,0.0441,0.0371,0.0406,
足立 (Adachi),2015-05-23,22:01～23:00,0.0434,0.0379,0.0405,
足立 (Adachi),2015-05-23,21:01～22:00,0.0428,0.0377,0.0407,
足立 (Adachi),2015-05-23,20:01～21:00,0.0434,0.0381,0.0406,
足立 (Adachi),2015-05-23,19:01～20:00,0.0450,0.0373,0.0404,
足立 (Adachi),2015-05-23,18:01～19:00,0.0436,0.0372,0.0402,
足立 (Adachi),2015-05-23,17:01～18:00,0.0437,0.0369,0.0403,
足立 (Adachi),2015-05-23,16:01～17:00,0.0427,0.0362,0.0401,
足立 (Adachi),2015-05-23,15:01～16:00,0.0441,0.0369,0.0400,
足立 (Adachi),2015-05-23,14:01～15:00,0.0437,0.0378,0.0405,
足立 (Adachi),2015-05-23,13:01～14:00,0.0442,0.0364,0.0408,
足立 (Adachi),2015-05-23,12:01～13:00,0.0446,0.0376,0.0410,
足立 (Adachi),2015-05-23,11:01～12:00,0.0440,0.0372,0.0407,
足立 (Adachi),2015-05-23,10:01～11:00,0.0457,0.0372,0.0409,
足立 (Adachi),2015-05-23,09:01～10:00,0.0461,0.0383,0.0414,
足立 (Adachi),2015-05-23,08:01～09:00,0.0450,0.0382,0.0414,
足立 (Adachi),2015-05-23,07:01～08:00,0.0457,0.0388,0.0415,
足立 (Adachi),2015-05-23,06:01～07:00,0.0432,0.0379,0.0410,
足立 (Adachi),2015-05-23,05:01～06:00,0.0438,0.0379,0.0407,
足立 (Adachi),2015-05-23,04:01～05:00,0.0436,0.0368,0.0402,
足立 (Adachi),2015-05-23,03:01～04:00,0.0438,0.0380,0.0404,
足立 (Adachi),2015-05-23,02:01～03:00,0.0434,0.0375,0.0401,
足立 (Adachi),2015-05-23,01:01～02:00,0.0435,0.0368,0.0402,
足立 (Adachi),2015-05-23,00:01～01:00,0.0425,0.0368,0.0399,
足立 (Adachi),2015-05-22,23:01～24:00,0.0432,0.0372,0.0399,
足立 (Adachi),2015-05-22,22:01～23:00,0.0429,0.0366,0.0398,
足立 (Adachi),2015-05-22,21:01～22:00,0.0432,0.0366,0.0398,
足立 (Adachi),2015-05-22,20:01～21:00,0.0432,0.0371,0.0402,
足立 (Adachi),2015-05-22,19:01～20:00,0.0433,0.0371,0.0397,
足立 (Adachi),2015-05-22,18:01～19:00,0.0428,0.0367,0.0397,
足立 (Adachi),2015-05-22,17:01～18:00,0.0423,0.0375,0.0398,
足立 (Adachi),2015-05-22,16:01～17:00,0.0434,0.0366,0.0399,
足立 (Adachi),2015-05-22,15:01～16:00,0.0431,0.0368,0.0398,
足立 (Adachi),2015-05-22,14:01～15:00,0.0430,0.0363,0.0393,
足立 (Adachi),2015-05-22,13:01～14:00,0.0428,0.0367,0.0396,
足立 (Adachi),2015-05-22,12:01～13:00,0.0427,0.0367,0.0392,
足立 (Adachi),2015-05-22,11:01～12:00,0.0422,0.0367,0.0394,
足立 (Adachi),2015-05-22,10:01～11:00,0.0426,0.0367,0.0393,
足立 (Adachi),2015-05-22,09:01～10:00,0.0418,0.0367,0.0392,
足立 (Adachi),2015-05-22,08:01～09:00,0.0419,0.0366,0.0396,
足立 (Adachi),2015-05-22,07:01～08:00,0.0424,0.0360,0.0394,
足立 (Adachi),2015-05-22,06:01～07:00,0.0443,0.0374,0.0401,
足立 (Adachi),2015-05-22,05:01～06:00,0.0440,0.0368,0.0407,
足立 (Adachi),2015-05-22,04:01～05:00,0.0426,0.0364,0.0401,
足立 (Adachi),2015-05-22,03:01～04:00,0.0428,0.0364,0.0395,
足立 (Adachi),2015-05-22,02:01～03:00,0.0435,0.0367,0.0400,
足立 (Adachi),2015-05-22,01:01～02:00,0.0430,0.0366,0.0397,
足立 (Adachi),2015-05-22,00:01～01:00,0.0429,0.0374,0.0398,
足立 (Adachi),2015-05-21,23:01～24:00,0.0423,0.0366,0.0395,
足立 (Adachi),2015-05-21,22:01～23:00,0.0428,0.0364,0.0394,
足立 (Adachi),2015-05-21,21:01～22:00,0.0431,0.0365,0.0397,
足立 (Adachi),2015-05-21,20:01～21:00,0.0420,0.0366,0.0394,
足立 (Adachi),2015-05-21,19:01～20:00,0.0427,0.0370,0.0396,
足立 (Adachi),2015-05-21,18:01～19:00,0.0426,0.0365,0.0395,
足立 (Adachi),2015-05-21,17:01～18:00,0.0421,0.0363,0.0394,
足立 (Adachi),2015-05-21,16:01～17:00,0.0426,0.0363,0.0390,
足立 (Adachi),2015-05-21,15:01～16:00,0.0428,0.0369,0.0394,
足立 (Adachi),2015-05-21,14:01～15:00,0.0417,0.0365,0.0392,
足立 (Adachi),2015-05-21,13:01～14:00,0.0423,0.0366,0.0393,
足立 (Adachi),2015-05-21,12:01～13:00,0.0437,0.0367,0.0392,
足立 (Adachi),2015-05-21,11:01～12:00,0.0412,0.0366,0.0387,
足立 (Adachi),2015-05-21,10:01～11:00,0.0422,0.0362,0.0389,
足立 (Adachi),2015-05-21,09:01～10:00,0.0424,0.0354,0.0385,
足立 (Adachi),2015-05-21,08:01～09:00,0.0425,0.0362,0.0392,
足立 (Adachi),2015-05-21,07:01～08:00,0.0460,0.0374,0.0417,
足立 (Adachi),2015-05-21,06:01～07:00,0.0607,0.0440,0.0511,
足立 (Adachi),2015-05-21,05:01～06:00,0.0736,0.0584,0.0672,
足立 (Adachi),2015-05-21,04:01～05:00,0.0707,0.0494,0.0600,
足立 (Adachi),2015-05-21,03:01～04:00,0.0572,0.0464,0.0528,
足立 (Adachi),2015-05-21,02:01～03:00,0.0496,0.0412,0.0447,
足立 (Adachi),2015-05-21,01:01～02:00,0.0443,0.0383,0.0413,
足立 (Adachi),2015-05-21,00:01～01:00,0.0432,0.0374,0.0401,
足立 (Adachi),2015-05-20,23:01～24:00,0.0448,0.0375,0.0404,
足立 (Adachi),2015-05-20,22:01～23:00,0.0431,0.0370,0.0403,
足立 (Adachi),2015-05-20,21:01～22:00,0.0430,0.0368,0.0398,
足立 (Adachi),2015-05-20,20:01～21:00,0.0430,0.0372,0.0399,
足立 (Adachi),2015-05-20,19:01～20:00,0.0429,0.0368,0.0396,
足立 (Adachi),2015-05-20,18:01～19:00,0.0438,0.0368,0.0398,
足立 (Adachi),2015-05-20,17:01～18:00,0.0419,0.0364,0.0397,
足立 (Adachi),2015-05-20,16:01～17:00,0.0428,0.0369,0.0397,
足立 (Adachi),2015-05-20,15:01～16:00,0.0439,0.0370,0.0400,
足立 (Adachi),2015-05-20,14:01～15:00,0.0422,0.0362,0.0393,
足立 (Adachi),2015-05-20,13:01～14:00,0.0424,0.0361,0.0391,
足立 (Adachi),2015-05-20,12:01～13:00,0.0435,0.0369,0.0396,
足立 (Adachi),2015-05-20,11:01～12:00,0.0423,0.0367,0.0396,
足立 (Adachi),2015-05-20,10:01～11:00,0.0420,0.0362,0.0392,
足立 (Adachi),2015-05-20,09:01～10:00,0.0430,0.0357,0.0392,
足立 (Adachi),2015-05-20,08:01～09:00,0.0424,0.0361,0.0386,
足立 (Adachi),2015-05-20,07:01～08:00,0.0418,0.0360,0.0390,
足立 (Adachi),2015-05-20,06:01～07:00,0.0425,0.0359,0.0386,
足立 (Adachi),2015-05-20,05:01～06:00,0.0421,0.0365,0.0387,
足立 (Adachi),2015-05-20,04:01～05:00,0.0426,0.0366,0.0390,
足立 (Adachi),2015-05-20,03:01～04:00,0.0429,0.0364,0.0392,
足立 (Adachi),2015-05-20,02:01～03:00,0.0431,0.0368,0.0394,
足立 (Adachi),2015-05-20,01:01～02:00,0.0424,0.0366,0.0397,
足立 (Adachi),2015-05-20,00:01～01:00,0.0450,0.0383,0.0416,
足立 (Adachi),2015-05-19,23:01～24:00,0.0452,0.0379,0.0409,
足立 (Adachi),2015-05-19,22:01～23:00,0.0424,0.0370,0.0395,
足立 (Adachi),2015-05-19,21:01～22:00,0.0425,0.0366,0.0394,
足立 (Adachi),2015-05-19,20:01～21:00,0.0417,0.0361,0.0391,
足立 (Adachi),2015-05-19,19:01～20:00,0.0426,0.0363,0.0391,
足立 (Adachi),2015-05-19,18:01～19:00,0.0414,0.0363,0.0385,
足立 (Adachi),2015-05-19,17:01～18:00,0.0422,0.0360,0.0388,
足立 (Adachi),2015-05-19,16:01～17:00,0.0420,0.0366,0.0391,
足立 (Adachi),2015-05-19,15:01～16:00,0.0430,0.0364,0.0390,
足立 (Adachi),2015-05-19,14:01～15:00,0.0419,0.0364,0.0385,
足立 (Adachi),2015-05-19,13:01～14:00,0.0423,0.0363,0.0388,
足立 (Adachi),2015-05-19,12:01～13:00,0.0417,0.0355,0.0387,
足立 (Adachi),2015-05-19,11:01～12:00,0.0436,0.0364,0.0393,
足立 (Adachi),2015-05-19,10:01～11:00,0.0429,0.0367,0.0399,
足立 (Adachi),2015-05-19,09:01～10:00,0.0466,0.0373,0.0416,
足立 (Adachi),2015-05-19,08:01～09:00,0.0479,0.0369,0.0421,
足立 (Adachi),2015-05-19,07:01～08:00,0.0442,0.0375,0.0401,
足立 (Adachi),2015-05-19,06:01～07:00,0.0432,0.0386,0.0409,
足立 (Adachi),2015-05-19,05:01～06:00,0.0486,0.0371,0.0414,
足立 (Adachi),2015-05-19,04:01～05:00,0.0543,0.0429,0.0482,
足立 (Adachi),2015-05-19,03:01～04:00,0.0622,0.0508,0.0571,
足立 (Adachi),2015-05-19,02:01～03:00,0.0574,0.0426,0.0501,
足立 (Adachi),2015-05-19,01:01～02:00,0.0523,0.0437,0.0483,
足立 (Adachi),2015-05-19,00:01～01:00,0.0507,0.0401,0.0456,
足立 (Adachi),2015-05-18,23:01～24:00,0.0524,0.0434,0.0477,
足立 (Adachi),2015-05-18,22:01～23:00,0.0511,0.0402,0.0455,
足立 (Adachi),2015-05-18,21:01～22:00,0.0473,0.0404,0.0441,
足立 (Adachi),2015-05-18,20:01～21:00,0.0486,0.0376,0.0426,
足立 (Adachi),2015-05-18,19:01～20:00,0.0431,0.0367,0.0406,
足立 (Adachi),2015-05-18,18:01～19:00,0.0439,0.0372,0.0399,
足立 (Adachi),2015-05-18,17:01～18:00,0.0431,0.0376,0.0402,
足立 (Adachi),2015-05-18,16:01～17:00,0.0434,0.0368,0.0404,
足立 (Adachi),2015-05-18,15:01～16:00,0.0444,0.0367,0.0407,
足立 (Adachi),2015-05-18,14:01～15:00,0.0422,0.0372,0.0401,
足立 (Adachi),2015-05-18,13:01～14:00,0.0462,0.0369,0.0403,
足立 (Adachi),2015-05-18,12:01～13:00,0.0434,0.0363,0.0402,
足立 (Adachi),2015-05-18,11:01～12:00,0.0425,0.0371,0.0398,
足立 (Adachi),2015-05-18,10:01～11:00,0.0428,0.0366,0.0398,
足立 (Adachi),2015-05-18,09:01～10:00,0.0427,0.0363,0.0396,
足立 (Adachi),2015-05-18,08:01～09:00,0.0422,0.0367,0.0400,
足立 (Adachi),2015-05-18,07:01～08:00,0.0429,0.0366,0.0398,
足立 (Adachi),2015-05-18,06:01～07:00,0.0426,0.0370,0.0396,
足立 (Adachi),2015-05-18,05:01～06:00,0.0426,0.0361,0.0396,
足立 (Adachi),2015-05-18,04:01～05:00,0.0433,0.0363,0.0398,
足立 (Adachi),2015-05-18,03:01～04:00,0.0426,0.0374,0.0402,
足立 (Adachi),2015-05-18,02:01～03:00,0.0433,0.0375,0.0403,
足立 (Adachi),2015-05-18,01:01～02:00,0.0436,0.0377,0.0405,
足立 (Adachi),2015-05-18,00:01～01:00,0.0439,0.0372,0.0405,
